Kansas City, MO

8:14 PM CDT on September 29, 2016 (GMT -0500)
Kansas City Downtown

Weather History for KMKC - July, 2012

Change the Weather History Date:

Tuesday, July 31, 2012

  Actual Average Record
Temperature  
Mean Temperature 88 °F -  
Max Temperature 100 °F 87 °F 102 °F (2006)
Min Temperature 77 °F 69 °F 62 °F (2014)
Cooling Degree Days 24    
Growing Degree Days 38 (Base 50)    
Moisture  
Dew Point 68 °F    
Average Humidity 53    
Maximum Humidity 84    
Minimum Humidity 30    
Precipitation  
Precipitation 0.00 in - - ()
Sea Level Pressure  
Sea Level Pressure 29.90 in    
Wind  
Wind Speed 3 mph (ENE)    
Max Wind Speed 10 mph    
Max Gust Speed 16 mph    
Visibility 10 miles    
Events      
Averages and records for this station are not official NWS values.
T = Trace of Precipitation, MM = Missing Value Source: NWS Daily Summary

Daily Weather History Graph

Daily Weather History Graph

Search for Another Location

Airport or City:

Trip Planner

Search our weather history database for the weather conditions in past years. The results will help you decide how hot, cold, wet, or windy it might be!

Date:

Astronomy

Jul. 31, 2012 Rise Set
Actual Time 6:18 AM CDT 8:30 PM CDT
Civil Twilight 5:48 AM CDT 9:00 PM CDT
Nautical Twilight 5:11 AM CDT 9:36 PM CDT
Astronomical Twilight 4:31 AM CDT 10:16 PM CDT
Moon 7:20 PM CDT (7/31) 4:40 AM CDT (7/31)
Length of Visible Light 15h 11m
Length of Day
14h 12m
Waxing Gibbous, 97% of the Moon is Illuminated
Jul 31
Waxing Gibbous
Aug 1
Full
Aug 9
Last Quarter
Aug 17
New
Aug 24
First Quarter

Hourly Weather History & Observations

Time (CDT) Temp. Heat Index Dew Point Humidity Pressure Visibility Wind Dir Wind Speed Gust Speed Precip Events Conditions
12:54 AM 82.0 °F 86.3 °F 71.1 °F 69% 29.91 in 10.0 mi Calm Calm - N/A   Clear
1:54 AM 82.9 °F 88.0 °F 72.0 °F 69% 29.90 in 10.0 mi Calm Calm - N/A   Clear
2:54 AM 82.0 °F 86.3 °F 71.1 °F 69% 29.91 in 10.0 mi Calm Calm - N/A   Clear
3:54 AM 81.0 °F 85.2 °F 72.0 °F 74% 29.91 in 10.0 mi Calm Calm - N/A   Clear
4:54 AM 80.1 °F 84.2 °F 73.0 °F 79% 29.90 in 10.0 mi Calm Calm - N/A   Clear
5:54 AM 79.0 °F - 72.0 °F 79% 29.91 in 10.0 mi Calm Calm - N/A   Clear
6:02 AM 78.8 °F - 71.6 °F 78% 29.94 in 10.0 mi Calm Calm - N/A   Clear
6:54 AM 77.0 °F - 72.0 °F 84% 29.91 in 10.0 mi Calm Calm - N/A   Clear
7:54 AM 81.0 °F 85.8 °F 73.0 °F 77% 29.91 in 10.0 mi East 4.6 mph - N/A   Clear
8:54 AM 84.0 °F 89.0 °F 71.1 °F 65% 29.93 in 10.0 mi ENE 5.8 mph - N/A   Clear
9:54 AM 88.0 °F 92.9 °F 70.0 °F 55% 29.93 in 10.0 mi Variable 3.5 mph - N/A   Clear
10:54 AM 91.9 °F 94.5 °F 66.0 °F 42% 29.93 in 10.0 mi East 5.8 mph - N/A   Clear
11:54 AM 93.0 °F 96.4 °F 66.9 °F 42% 29.93 in 10.0 mi Variable 4.6 mph - N/A   Clear
12:54 PM 97.0 °F 97.8 °F 62.1 °F 31% 29.91 in 10.0 mi East 8.1 mph - N/A   Clear
1:54 PM 98.6 °F 100.0 °F 62.6 °F 30% 29.92 in 10.0 mi NE 9.2 mph - N/A   Clear
2:54 PM 98.1 °F 99.6 °F 63.0 °F 31% 29.87 in 10.0 mi NE 8.1 mph 16.1 mph N/A   Clear
3:54 PM 98.1 °F 99.6 °F 63.0 °F 31% 29.86 in 10.0 mi Variable 5.8 mph - N/A   Clear
4:54 PM 99.0 °F 100.5 °F 63.0 °F 30% 29.85 in 10.0 mi ENE 6.9 mph - N/A   Clear
5:54 PM 100.0 °F 103.0 °F 64.0 °F 31% 29.84 in 10.0 mi ENE 8.1 mph - N/A   Clear
6:54 PM 98.1 °F 101.2 °F 64.9 °F 34% 29.84 in 10.0 mi NE 10.4 mph - N/A   Clear
7:54 PM 95.0 °F 97.0 °F 64.0 °F 36% 29.84 in 10.0 mi ENE 9.2 mph - N/A   Clear
8:54 PM 91.9 °F 94.1 °F 64.9 °F 41% 29.86 in 10.0 mi East 5.8 mph - N/A   Clear
9:54 PM 91.4 °F 93.2 °F 64.4 °F 41% 29.90 in 10.0 mi East 4.6 mph - N/A   Clear
10:54 PM 87.1 °F 88.3 °F 64.0 °F 46% 29.88 in 10.0 mi Calm Calm - N/A   Clear
11:54 PM 87.8 °F 90.4 °F 66.2 °F 49% 29.90 in 10.0 mi Calm Calm - N/A   Clear